Hourly Weather Chişinău

Today, 5 July, Sunday

Time Temperature Precipitation Wind Pressure Humidity
00:00 +21°C° 0.1 mm 4 mps 750 mmHg 90%
01:00 +21°C° 0.1 mm 4 mps 751 mmHg 91%
02:00 +20°C° 0.1 mm 4 mps 751 mmHg 92%
03:00 +20°C° 0 mm 4 mps 751 mmHg 92%
04:00 +20°C° 0 mm 4 mps 751 mmHg 92%
05:00 +20°C° 0 mm 4 mps 751 mmHg 92%
06:00 +21°C° 0 mm 4 mps 751 mmHg 87%
07:00 +23°C° 0 mm 5 mps 751 mmHg 81%
08:00 +25°C° 0 mm 5 mps 751 mmHg 76%
09:00 +27°C° 0 mm 5 mps 751 mmHg 70%
10:00 +28°C° 0 mm 5 mps 751 mmHg 64%
11:00 +30°C° 0 mm 5 mps 751 mmHg 58%
12:00 +32°C° 0 mm 5 mps 751 mmHg 55%
13:00 +32°C° 0 mm 5 mps 751 mmHg 52%
14:00 +33°C° 0 mm 5 mps 750 mmHg 49%
15:00 +33°C° 0 mm 5 mps 750 mmHg 51%
16:00 +32°C° 0 mm 5 mps 750 mmHg 53%
17:00 +32°C° 0 mm 5 mps 750 mmHg 54%
18:00 +29°C° 0 mm 5 mps 750 mmHg 61%
19:00 +28°C° 0 mm 4 mps 750 mmHg 67%
20:00 +26°C° 0 mm 3 mps 750 mmHg 73%
21:00 +25°C° 0 mm 3 mps 751 mmHg 76%
22:00 +24°C° 0 mm 3 mps 751 mmHg 79%
23:00 +22°C° 0 mm 3 mps 751 mmHg 81%

Tomorrow, 6 July, Monday

Time Temperature Precipitation Wind Pressure Humidity
00:00 +22°C° 0 mm 3 mps 751 mmHg 83%
01:00 +21°C° 0 mm 3 mps 751 mmHg 85%
02:00 +21°C° 0 mm 3 mps 751 mmHg 87%
03:00 +21°C° 0 mm 3 mps 751 mmHg 88%
04:00 +20°C° 0 mm 3 mps 750 mmHg 88%
05:00 +20°C° 0 mm 3 mps 750 mmHg 88%
06:00 +22°C° 0 mm 3 mps 750 mmHg 81%
07:00 +23°C° 0 mm 4 mps 750 mmHg 74%
08:00 +26°C° 0 mm 4 mps 750 mmHg 68%
09:00 +28°C° 0 mm 4 mps 750 mmHg 62%
10:00 +29°C° 0 mm 4 mps 750 mmHg 56%
11:00 +32°C° 0 mm 4 mps 749 mmHg 50%
12:00 +32°C° 0 mm 4 mps 749 mmHg 48%
13:00 +33°C° 0 mm 3 mps 749 mmHg 46%
14:00 +34°C° 0 mm 3 mps 748 mmHg 43%
15:00 +33°C° 0 mm 3 mps 748 mmHg 44%
16:00 +33°C° 0 mm 3 mps 747 mmHg 45%
17:00 +32°C° 0 mm 2 mps 747 mmHg 46%
18:00 +30°C° 0 mm 3 mps 747 mmHg 52%
19:00 +29°C° 0 mm 3 mps 747 mmHg 58%
20:00 +27°C° 0 mm 3 mps 747 mmHg 64%
21:00 +26°C° 0.5 mm 2 mps 747 mmHg 71%
22:00 +25°C° 0.5 mm 2 mps 746 mmHg 77%
23:00 +23°C° 0.5 mm 1 mps 746 mmHg 83%

Day after tomorrow, 7 July, Tuesday

Time Temperature Precipitation Wind Pressure Humidity
00:00 +23°C° 0.1 mm 1 mps 746 mmHg 85%
01:00 +23°C° 0.1 mm 2 mps 746 mmHg 86%
02:00 +23°C° 0.1 mm 2 mps 746 mmHg 88%
03:00 +23°C° 0.1 mm 2 mps 745 mmHg 89%
04:00 +21°C° 0.1 mm 2 mps 745 mmHg 90%
05:00 +22°C° 0.1 mm 1 mps 745 mmHg 91%
06:00 +24°C° 0.2 mm 2 mps 745 mmHg 85%
07:00 +25°C° 0.2 mm 2 mps 745 mmHg 80%
08:00 +27°C° 0.2 mm 2 mps 745 mmHg 74%
09:00 +28°C° 0.2 mm 2 mps 745 mmHg 68%
10:00 +29°C° 0.2 mm 3 mps 745 mmHg 62%
11:00 +31°C° 0.2 mm 3 mps 745 mmHg 56%
12:00 +30°C° 0.7 mm 3 mps 745 mmHg 57%
13:00 +30°C° 0.7 mm 3 mps 745 mmHg 59%
14:00 +30°C° 0.7 mm 3 mps 745 mmHg 60%
15:00 +29°C° 0.6 mm 4 mps 745 mmHg 62%
16:00 +29°C° 0.6 mm 4 mps 745 mmHg 63%
17:00 +28°C° 0.6 mm 5 mps 746 mmHg 65%
18:00 +27°C° 0.5 mm 4 mps 746 mmHg 72%
19:00 +25°C° 0.5 mm 4 mps 746 mmHg 78%
20:00 +22°C° 0.5 mm 3 mps 747 mmHg 85%
21:00 +22°C° 0.1 mm 4 mps 747 mmHg 87%
22:00 +21°C° 0.1 mm 4 mps 747 mmHg 88%
23:00 +20°C° 0.1 mm 5 mps 747 mmHg 90%

8 July, Wednesday

Time Temperature Precipitation Wind Pressure Humidity
00:00 +20°C° 0 mm 5 mps 747 mmHg 91%
01:00 +20°C° 0 mm 5 mps 748 mmHg 91%
02:00 +20°C° 0 mm 6 mps 748 mmHg 92%
03:00 +20°C° 0 mm 6 mps 748 mmHg 92%
04:00 +20°C° 0 mm 6 mps 748 mmHg 92%
05:00 +20°C° 0 mm 5 mps 748 mmHg 92%
06:00 +20°C° 0 mm 6 mps 748 mmHg 90%
07:00 +20°C° 0 mm 7 mps 749 mmHg 88%
08:00 +20°C° 0 mm 7 mps 749 mmHg 86%
09:00 +21°C° 0 mm 7 mps 749 mmHg 81%
10:00 +22°C° 0 mm 7 mps 749 mmHg 76%
11:00 +23°C° 0 mm 7 mps 750 mmHg 70%
12:00 +23°C° 0 mm 7 mps 750 mmHg 69%
13:00 +24°C° 0 mm 7 mps 750 mmHg 68%
14:00 +24°C° 0 mm 7 mps 750 mmHg 67%
15:00 +24°C° 0 mm 7 mps 750 mmHg 67%
16:00 +24°C° 0 mm 7 mps 750 mmHg 67%
17:00 +24°C° 0 mm 7 mps 750 mmHg 67%
18:00 +23°C° 0 mm 6 mps 750 mmHg 71%
19:00 +22°C° 0 mm 5 mps 750 mmHg 74%
20:00 +21°C° 0 mm 4 mps 750 mmHg 78%
21:00 +20°C° 0 mm 3 mps 750 mmHg 81%
22:00 +19°C° 0 mm 3 mps 750 mmHg 83%
23:00 +19°C° 0 mm 3 mps 751 mmHg 86%

9 July, Thursday

Time Temperature Precipitation Wind Pressure Humidity
00:00 +18°C° 0 mm 3 mps 751 mmHg 87%
01:00 +18°C° 0 mm 3 mps 751 mmHg 89%
02:00 +18°C° 0 mm 4 mps 751 mmHg 90%
03:00 +18°C° 0 mm 4 mps 751 mmHg 89%
04:00 +17°C° 0 mm 4 mps 751 mmHg 88%
05:00 +17°C° 0 mm 4 mps 751 mmHg 87%
06:00 +19°C° 0 mm 5 mps 751 mmHg 80%
07:00 +20°C° 0 mm 5 mps 752 mmHg 72%
08:00 +22°C° 0 mm 6 mps 752 mmHg 65%
09:00 +23°C° 0 mm 6 mps 752 mmHg 61%
10:00 +24°C° 0 mm 6 mps 752 mmHg 58%
11:00 +26°C° 0 mm 6 mps 752 mmHg 54%
12:00 +26°C° 0 mm 6 mps 752 mmHg 52%
13:00 +27°C° 0 mm 6 mps 752 mmHg 49%
14:00 +27°C° 0 mm 6 mps 752 mmHg 47%
15:00 +27°C° 0 mm 6 mps 752 mmHg 47%
16:00 +27°C° 0 mm 6 mps 752 mmHg 48%
17:00 +27°C° 0 mm 6 mps 752 mmHg 49%
18:00 +25°C° 0 mm 5 mps 752 mmHg 55%
19:00 +23°C° 0 mm 4 mps 752 mmHg 61%
20:00 +21°C° 0 mm 2 mps 752 mmHg 67%
21:00 +20°C° 0 mm 3 mps 753 mmHg 70%
22:00 +19°C° 0 mm 3 mps 753 mmHg 72%
23:00 +19°C° 0 mm 3 mps 753 mmHg 75%

10 July, Friday

Time Temperature Precipitation Wind Pressure Humidity
00:00 +18°C° 0 mm 3 mps 753 mmHg 78%
01:00 +18°C° 0 mm 3 mps 753 mmHg 81%
02:00 +17°C° 0 mm 3 mps 754 mmHg 85%
03:00 +17°C° 0 mm 3 mps 754 mmHg 86%
04:00 +16°C° 0 mm 3 mps 754 mmHg 88%
05:00 +16°C° 0 mm 3 mps 754 mmHg 90%
06:00 +18°C° 0 mm 3 mps 754 mmHg 82%
07:00 +20°C° 0 mm 3 mps 754 mmHg 75%
08:00 +22°C° 0 mm 4 mps 754 mmHg 68%
09:00 +23°C° 0 mm 4 mps 754 mmHg 61%
10:00 +25°C° 0 mm 4 mps 754 mmHg 55%
11:00 +26°C° 0 mm 4 mps 754 mmHg 48%
12:00 +27°C° 0 mm 3 mps 754 mmHg 46%
13:00 +28°C° 0 mm 3 mps 754 mmHg 44%
14:00 +28°C° 0 mm 3 mps 754 mmHg 42%
15:00 +28°C° 0 mm 3 mps 754 mmHg 43%
16:00 +27°C° 0 mm 3 mps 754 mmHg 45%
17:00 +27°C° 0 mm 3 mps 753 mmHg 46%
18:00 +25°C° 0 mm 2 mps 754 mmHg 51%
19:00 +24°C° 0 mm 2 mps 754 mmHg 55%
20:00 +21°C° 0 mm 2 mps 754 mmHg 60%
21:00 +20°C° 0 mm 2 mps 754 mmHg 61%
22:00 +19°C° 0 mm 2 mps 754 mmHg 62%
23:00 +19°C° 0 mm 1 mps 754 mmHg 63%
Show more